STARLINK-11082, 59711

Orbit data source: Space-Track

STARLINK-11082, 59711 is a payload satellite owned by SpaceX/Seattle (US) in LEO that was launched on Fri, 10 May 2024 UTC via an FALCON 9 launch vehicle from the Air Force Western Test Range (AFWTR). Payload-class satellites include a variety of spacecraft equipped with specific instruments for various scientific and technological missions. These include communications satellites like Starlink; space stations such as the ISS; scientific satellites like the Hubble; Earth observation satellites from companies like Planet Labs, Umbra, and HawkEye 360; GPS; miniature CubeSats for education and research; and military/defense satellites.

Loading next visibility...
Identifier
59711, 2024-088D
Orbit
LEO
Country
Flag of USUS
Related business
Manufacturer
SpaceX/Seattle
Mission
Operational Commercial Communications
Bus & Motor
STARLINK V2MD, Unknown motor
Mass
960 kg wet, ~910 kg dry
Launch date (UTC)
2024-05-10 (2 years ago)
Launch vehicle
FALCON 9
Launch site
Air Force Western Test Range (AFWTR)
Object type
Payload
Rocket body
Debris
Shape & HBR
Box + 2 Pan, 18.1 m
Radar Cross Section
36.964 m², Large (>1 m²)

Expand to show TLE details & history
Last TLE update: 12 hours ago

TLE from 12 hours ago
0 STARLINK-11082
1 59711U 24088D   25346.87039176  .00001825  00000-0  19906-4 0  9991
2 59711  53.1593  34.4541 0000744 112.4006 247.7091 15.69720682 92637
Epoch: 2025-12-12T20:53Z
TLE epoch observation values (Epoch: 2025-12-12T20:53:21.848Z)
Latitude
0.00002°
Longitude
-0.69273°
Altitude
360.801 km
Speed
7.694 km/s
True Right ascension
02h 17m 48s
True Declination
0° 00' 00"
Sunlit
Object was in full shadow at epoch
Visualization orbit readout
Latitude
Unknown
Longitude
Unknown
Altitude
Unknown
Speed
Unknown
Apparent Right ascension
Unknown
Apparent Declination
Unknown
Sunlit
N/A
Visualization observer readout
Local Sidereal Time
07:30:36
Azimuth
Unknown
Elevation
Unknown
Doppler factor
Unknown
Orbital elements
Apogee altitude
360.458 km
Perigee altitude
359.456 km
Semi-major axis
6,738.094 km
Eccentricity
0.00007
Inclination
53.1593°
RAAN
34.4541°
Arg. of periapsis
112.4006°
True anomaly
247.70121°
Mean anomaly
247.7091°
Eccentric anomaly
247.70516°
Mean motion
3.92408 °/min
Orbital period
91.74 mins
BSTAR
0.000019906
Loading maneuver chart data...
Computing Atmospheric mass density...
Loading historical data...
Loading historical data...
Loading historical data...
Loading historical data...
Loading historical data...
Loading historical data...
Loading historical data...

Documentation

Showing up to 5 results
|